Terminal Aerodrome Forecast
Issued by NWS

Home | Current Version | Previous Version | Text Only | Print | Product List | Glossary On
Versions: 1 2 3 4 5 6 7 8 9 10 11 12 13 14 15 16 17 18 19 20 21 22 23 24 25 26 27 28 29 30 31 32 33 34 35 36 37 38
000
FTAK31 PANC 060537
TAFAGK
TAF
PAGK 060537Z 0606/0706 17005KT P6SM SCT020 BKN050
     FM061200 17009KT 5SM -SHSN SCT015 BKN030
     FM062000 16010G15KT P6SM SCT030 BKN080=

USA.gov is the U.S. government's official web portal to all federal, state and local government web resources and services.